User: anonymous   Login
Location: Unspecified
(0.0000°N, 0.0000°E)
Time: 21:56:43
(UTC+00:00)
Language:

Nadezhda 3 - Orbit

View from above orbital plane
View from above orbital plane
View from above satellite
View from above satellite

Ground track
Ground track

The orbit data is extracted from the following two-line orbital elements,

1 21152U 91019A   17082.93762633 +.00000054 +00000-0 +40829-4 0  9994
2 21152 082.9237 284.5147 0042942 109.6082 002.9102 13.74216142304969
Epoch (UTC): 23 March 2017 22:30:10
Eccentricity: 0.0042942
inclination: 82.9237°
perigee height: 953 km
apogee height: 1016 km
right ascension of ascending node: 284.5147°
argument of perigee: 109.6082°
revolutions per day: 13.74216142
mean anomaly at epoch: 2.9102°
orbit number at epoch: 30496

The dashed part of the orbit path shows where the satellite is in the earth's shadow,  

DLR